www.pogodaiklimat.ru

Погода и климат >> Архив погоды >> Россия >> Дагестан >> Буйнакск


АРХИВ ПОГОДЫ в Буйнакске

Время (UTC), дата Ветер
(напр.,м/с)
 
Видим.   Явления Облачность Т
(С)
Тd
(С)
f
(%)
Тe
(С)
Тes
(С)
Комфортность P
(гПа)
Po
(гПа)
Тmin
(С)
Tmax
(С)
R
(мм)
R24
(мм)
S
(см)
21 19.03 В 1 2000 м слаб. ливневой дождь 10/10 600 м
[Cb cap]
+3.4 +2.7 95 +2 +2 1026.1 968.4
00 20.03 СЗ 1 2000 м дымка {ливн. осадки} 10/10 600 м
[Cb cap]
+3.2 +2.4 94 +2 +2 1025.0 967.3
03 20.03 СВ 1 2000 м дымка 10/10 600 м
[Cb cap]
+3.0 +1.9 92 +1 +1 1025.2 967.4 +3.0 4
06 20.03 Ю 1 4000 м дымка 10/10 300 м
[St]
+3.1 +2.0 92 +1 +1 1025.6 967.8 +2.7
09 20.03 С 2 10 км 10/10 600 м
[Sc]
+4.9 +1.8 80 +2 +2 1024.8 967.4
12 20.03 С 1 10 км 10/10 600 м
[Sc]
+5.9 +1.8 75 +5 +5 1023.5 966.3
15 20.03 С 2 4000 м дымка 10/10 600 м
[Sc]
+4.8 +2.1 83 +2 +2 1023.7 966.4 +6.4
18 20.03 С 1 10 км 10/10 600 м
[Sc]
+3.5 +1.8 89 +2 +2 1024.8 967.1
21 20.03 штиль 0 10 км 10/10 600 м
[Sc]
+3.5 +1.5 87 +2 +2 1024.0 966.4
00 21.03 З 1 10 км 10/10 600 м
[Sc]
+4.2 +2.3 87 +3 +3 1023.0 965.6
03 21.03 ЮЗ 1 10 км 10/10 600 м
[Sc]
+4.6 +1.3 79 +3 +3 1023.2 965.8 +3.3
06 21.03 С 1 10 км 10/0
[Ac und]
+6.4 +1.2 69 +6 +8 1023.6 966.6
09 21.03 С 1 10 км 9/9 600 м
[Cu med, cong]
+8.6 +1.9 63 +8 +10 1022.8 966.3
12 21.03 С 1 10 км 8/0
[Ac As]
+11.0 +2.6 56 +11 +14 1020.7 964.7
15 21.03 штиль 0 10 км 5/0
[Ac As]
+8.3 +3.4 71 +8 +8 1021.2 964.7 +11.6
18 21.03 ЮЗ 1 10 км ясно +4.1 +1.6 84 +3 +3 1022.9 965.5
21 21.03 ЮЗ 1 10 км ясно +3.4 +0.9 84 +2 +2 1022.8 965.2
00 22.03 ЮЗ 1 10 км 5/0
[Ac As]
+2.6 +0.3 85 +1 +1 1022.6 964.9
03 22.03 ЮЗ 1 10 км 10/10 600 м
[Sc Ac As]
+3.8 +1.6 86 +2 +2 1022.9 965.4 +2.5
06 22.03 С 2 4000 м в посл. час ливневой дождь 10/10 600 м
[Cb cap]
+5.9 +2.9 81 +4 +4 1023.6 966.5
09 22.03 С 2 10 км в посл. час ливневой дождь 10/10 600 м
[Cb cap]
+6.0 +2.7 79 +4 +4 1022.7 965.7
12 22.03 ЮЗ 1 10 км слаб. ливневой дождь 10/10 600 м
[Cb cap]
+5.0 +2.7 85 +4 +4 1022.3 965.1
15 22.03 З 1 10 км слаб. ливневой дождь 10/10 600 м
[Cb cap]
+3.6 +1.4 86 +2 +2 1023.0 965.5 +6.3 3
18 22.03 штиль 0 10 км {ливн. осадки} 6/6 600 м
[Cb cap]
+2.8 +1.2 89 +2 +2 1023.0 965.3
21 22.03 ЮЗ 1 10 км 10/10 600 м
[Sc]
+3.3 +1.0 85 +2 +2 1021.0 963.5
00 23.03 ЮЗ 1 10 км ясно +1.8 -0.4 85 0 0 1019.6 961.9
03 23.03 ЮЗ 1 20 км 8/0
[Ac As]
+0.7 -1.5 85 -1 -1 1017.9 960.0 +0.6 1
06 23.03 В 1 50 км 9/0
[Ac As]
+8.9 -0.5 52 +9 +12 1015.6 959.5
09 23.03 В 4 20 км 6/3 1000 м
[Cu med, cong Ci fib]
+10.8 +3.1 59 +9 +14 1012.8 957.2
12 23.03 ЮВ 5
{10}
10 км 5/0
[Ac As]
+9.2 +4.1 70 +6 +8 1011.2 955.4
15 23.03 ЮВ 4-12
{13}
4000 м дымка 10/10 600 м
[Cb cap]
+5.0 +2.7 85 +1 +1 1012.2 955.6 +11.2
18 23.03 ЮВ 2 10 км 10/10 600 м
[Sc]
+4.7 +3.1 89 +2 +2 1013.2 956.4
21 23.03 СЗ 1 10 км 10/10 600 м
[Sc]
+5.1 +2.5 83 +4 +4 1013.4 956.7
00 24.03 СВ 1 10 км 10/10 600 м
[Sc]
+3.8 +2.4 91 +2 +2 1013.9 956.9
03 24.03 С 1 10 км 10/10 600 м
[Sc]
+3.2 +0.1 80 +2 +2 1014.2 957.1 +3.2
06 24.03 С 2 10 км 10/10 600 м
[Sc]
+3.5 +0.1 78 +1 +1 1015.6 958.5
09 24.03 С 3 10 км 10/0
[Ac und]
+4.5 -0.4 70 +1 +4 1015.7 958.7
12 24.03 С 3 10 км 10/10 600 м
[Sc]
+3.2 -1.3 72 -1 -1 1016.3 959.1
15 24.03 С 2 10 км 10/10 600 м
[Sc]
+3.0 -2.1 69 0 0 1016.7 959.3 +5.3
18 24.03 З 1 10 км 10/10 600 м
[Sc]
+2.7 -1.2 75 +1 +1 1018.3 960.9
21 24.03 штиль 0 10 км 10/10 600 м
[Sc]
+2.5 -2.1 72 +2 +2 1018.0 960.5
00 25.03 штиль 0 10 км 10/10 600 м
[Sc]
+2.9 -2.4 68 +2 +2 1018.6 961.1
03 25.03 С 1 10 км 10/10 600 м
[Sc]
+2.1 -2.2 73 +1 +1 1020.7 963.0 +2.1
06 25.03 С 2 10 км 10/10 600 м
[Sc]
+3.9 -3.8 57 +2 +2 1019.8 962.5 +2.0
09 25.03 ЮВ 1 10 км 10/5 600 м
[Sc Ac As]
+6.3 -3.5 49 +6 +8 1018.3 961.6
12 25.03 Ю 1 10 км 8/4 600 м
[Sc Ac As]
+6.4 -3.4 49 +6 +8 1018.0 961.3
15 25.03 ЮВ 2 10 км 8/0
[Ac As]
+5.0 -1.7 62 +3 +3 1018.7 961.6 +7.4
18 25.03 Ю 1 10 км 6/0
[Ac As]
+2.7 -1.3 75 +1 +1 1020.1 962.5
21 25.03 ЮЗ 1 10 км 5/0
[Ac As]
+0.7 -2.2 81 -1 -1 1020.1 962.1
00 26.03 штиль 0 10 км 8/0
[Ac As]
-0.4 -3.0 83 -2 -2 1020.1 961.9
03 26.03 ЮЗ 1 10 км 1/0
[Ac As]
-0.2 -3.3 80 -2 -2 1020.4 962.2 -0.4
06 26.03 ЮВ 4 50 км 8/0
[Ac trans Ci fib]
+6.3 -1.7 57 +3 +7 1018.1 961.4
09 26.03 ЮВ 6-13
{13}
50 км 8/0
[Ac trans]
+8.3 +0.4 57 +5 +7 1015.9 959.6
12 26.03 ЮВ 5-12
{13}
50 км 8/0
[Ac As]
+6.2 +1.0 69 +2 +4 1015.6 959.0
15 26.03 ЮВ 4
{12}
10 км 9/0
[Ac As]
+3.8 +0.9 81 -1 -1 1016.3 959.2 +8.5
18 26.03 ЮВ 2 10 км 10/10 600 м
[Sc]
+3.4 +1.5 87 0 0 1016.6 959.4

 

Местоположение метеостанции Буйнакск (Дагестан, Россия): широта 42.82 долгота 47.12 высота над уровнем моря 466 м.

В архиве по умолчанию представлена погода в Буйнакске за последнюю неделю. Архивные данные за месяц целиком и за предыдущие месяцы, начиная с января 2011 года, Вы можете получить, выбрав интересующий диапазон дат из раскрывающегося списка и нажав кнопку "Ввод!".


*Определитесь, кто Вы:
робот инопланетянин человек

Внимание! Время в таблицах - всемирное. Для получения местного времени необходимо прибавить поправку, которая равна 3 ч.

Смотрите также архив погоды в соседних городах и на ближайших метеорологических станциях:

Погода в Махачкале (Дагестан, Россия) (37 км)
Погода в Куппе (Дагестан, Россия) (43 км)
Погода в Хунзахе (Дагестан, Россия) (44 км)
Погода в Гунибе (Дагестан, Россия) (48 км)
Погода в Сергокале (Дагестан, Россия) (61 км)
Погода в Хасавюрте (Дагестан, Россия) (65 км)
Погода в Изберге (Дагестан, Россия) (73 км)
Погода в Кумухе (Дагестан, Россия) (78 км)
Погода в Сулаке (высокогорная) (Дагестан, Россия) (87 км)
Погода в Бабаюрте (Дагестан, Россия) (91 км)

Пояснения к столбцам:

Ветер - указаны скорость ветра в м/с - средняя за 10 мин, порывы в срок и между сроками (в фигурных скобках) и направление, откуда дует ветер: С - северный, СВ - северо-восточный, В - восточный, ЮВ - юго-восточный, Ю - южный, ЮЗ - юго-западный, З - западный, СЗ - северо-западный.
Видимость - горизонтальная дальность видимости в метрах или километрах. При видимости от 1 до 10 км при отсутствии осадков обычно наблюдается дымка, при ухудшении видимости до 1 км и менее - туман. В сухую погоду видимость может ухудшаться дымом, пылью или мглою.
Явления - указаны атмосферные явления, наблюдавшиеся в срок или в последний час перед сроком; фигурными скобками обозначены явления, наблюдавшиеся между сроками (за 1-3 часа до срока); квадратными скобками обозначены град или гололедные отложения с указанием их диаметра в мм.
Облачность - указаны через наклонную черту общая и нижняя облачность в баллах и высота нижней границы облаков в метрах; квадратными скобками обозначены формы облаков: Ci - перистые, Cs - перисто-слоистые, Cc - перисто-кучевые, Ac - высококучевые, As - высокослоистые, Sc - слоисто-кучевые, Ns - слоисто-дождевые, Cu - кучевые, Cb - кучево-дождевые. Подробнее классификацию облаков см. в Атласе облаков (PDF).
T - Температура воздуха - температура, измеренная на высоте 2 м над землей.
Td - Температура точки росы - температура, при понижении до которой содержащийся в воздухе водяной пар достигнет насыщения.
f - Относительная влажность воздуха - влажноcть воздуха, измеренная на высоте 2 м над землей.
Te - Эффективная температура - температура, которую ощущает одетый по сезону человек в тени. Характеристика душности погоды. При расчете учитывается влияние влажности воздуха и скорости ветра на теплоощущения человека.
Tes - Эффективная температура на солнце - температура, которую ощущает человек, с поправкой на солнечный нагрев. Характеристика знойности погоды. Зависит от высоты солнца над горизонтом, облачности и скорости ветра. Ночью, в пасмурную погоду, а также при ветре 12 м/с и более поправка равна нулю.
P - Атмосферное давление - приведенное к уровню моря атмосферное давление.
Po - Атмосферное давление - измеренное на уровне метеостанции атмосферное давление.
Tmin - Минимальная температура - минимум температуры воздуха на высоте 2 м над землей.
Tmax - Максимальная температура - максимум температуры воздуха на высоте 2 м над землей.
R - Количество осадков - Количество выпавших осадков за период времени, мм. При наведении курсора мыши на число - период времени, за который выпало указанное количество осадков.
R24 - Количество осадков - Количество выпавших осадков за 24 часа, мм.
S - Снежный покров - Высота снежного покрова, см. При наведении курсора мыши на число - состояние снежного покрова и степень покрытия местности в баллах.